Ontario, CA

6:51 AM PDT on October 19, 2017 (GMT -0700)
Ontario International

Weather History for KONT - January, 2014

Change the Weather History Date:

Friday, January 10, 2014

  Actual Average Record
Temperature  
Mean Temperature 58 °F 54 °F  
Max Temperature 73 °F 65 °F 78 °F (2004)
Min Temperature 42 °F 44 °F 39 °F (2000)
Degree Days  
Heating Degree Days 7 11  
Month to date heating degree days 68 110  
Since 1 July heating degree days 490 670  
Cooling Degree Days 0 0  
Month to date cooling degree days 0 0  
Year to date cooling degree days 0 0  
Growing Degree Days 8 (Base 50)    
Moisture  
Dew Point 42 °F    
Average Humidity 60    
Maximum Humidity 93    
Minimum Humidity 27    
Precipitation  
Precipitation 0.00 in 0.13 in 1.57 in (2005)
Month to date precipitation 0.00 1.30  
Year to date precipitation 0.00 1.30  
Since 1 July precipitation 0.92  
Snow  
Snow 0.00 in - - ()
Month to date snowfall 0.0  
Year to date snowfall 0.0  
Snow Depth 0.00 in    
Sea Level Pressure  
Sea Level Pressure 30.07 in    
Wind  
Wind Speed 3 mph (West)    
Max Wind Speed 9 mph    
Max Gust Speed 13 mph    
Visibility 5 miles    
Events      
T = Trace of Precipitation, MM = Missing Value Source: NWS Daily Summary

Daily Weather History Graph

Daily Weather History Graph

Search for Another Location

Airport or City:

Trip Planner

Search our weather history database for the weather conditions in past years. The results will help you decide how hot, cold, wet, or windy it might be!

Date:

Astronomy

Jan. 10, 2014 Rise Set
Actual Time 6:56 AM PST 4:59 PM PST
Civil Twilight 6:29 AM PST 5:27 PM PST
Nautical Twilight 5:58 AM PST 5:58 PM PST
Astronomical Twilight 5:28 AM PST 6:28 PM PST
Moon 1:03 PM PST (1/10) 2:12 AM PST (1/10)
Length of Visible Light 10h 57m
Length of Day
10h 03m
Waxing Gibbous, 76% of the Moon is Illuminated
Jan 10
Waxing Gibbous
Jan 15
Full
Jan 23
Last Quarter
Jan 30
New
Feb 6
First Quarter

Hourly Weather History & Observations

Time (PST) Temp. Windchill Dew Point Humidity Pressure Visibility Wind Dir Wind Speed Gust Speed Precip Events Conditions
12:49 AM 44.6 °F - 42.8 °F 93% 30.05 in 4.0 mi Calm Calm - N/A   Scattered Clouds
12:53 AM 46.0 °F - 43.0 °F 89% 30.05 in 4.0 mi Calm Calm - N/A   Scattered Clouds
1:53 AM 46.0 °F - 44.1 °F 93% 30.06 in 4.0 mi Calm Calm - N/A   Scattered Clouds
2:53 AM 45.0 °F 42.6 °F 43.0 °F 93% 30.06 in 3.0 mi NE 4.6 mph - N/A   Scattered Clouds
3:53 AM 44.1 °F 42.5 °F 41.0 °F 89% 30.07 in 3.0 mi North 3.5 mph - N/A   Partly Cloudy
4:53 AM 45.0 °F - 42.1 °F 90% 30.06 in 4.0 mi Calm Calm - N/A   Scattered Clouds
5:53 AM 42.1 °F 40.2 °F 39.0 °F 89% 30.07 in 4.0 mi North 3.5 mph - N/A   Scattered Clouds
6:53 AM 45.0 °F - 41.0 °F 86% 30.08 in 5.0 mi Calm Calm - N/A   Mostly Cloudy
7:53 AM 50.0 °F - 43.0 °F 77% 30.10 in 5.0 mi Calm Calm - N/A   Haze
8:53 AM 57.9 °F - 43.0 °F 58% 30.11 in 6.0 mi Variable 3.5 mph - N/A   Haze
9:53 AM 59.0 °F - 44.1 °F 58% 30.13 in 5.0 mi Calm Calm - N/A   Haze
10:53 AM 64.0 °F - 44.1 °F 48% 30.10 in 5.0 mi WSW 3.5 mph - N/A   Haze
11:53 AM 66.0 °F - 45.0 °F 47% 30.07 in 5.0 mi SW 5.8 mph - N/A   Haze
12:53 PM 71.1 °F - 39.0 °F 31% 30.03 in 6.0 mi SW 9.2 mph - N/A   Haze
1:53 PM 72.0 °F - 37.0 °F 28% 30.02 in 7.0 mi WSW 4.6 mph - N/A   Partly Cloudy
2:53 PM 73.0 °F - 37.0 °F 27% 30.01 in 8.0 mi WSW 4.6 mph - N/A   Partly Cloudy
3:53 PM 72.0 °F - 37.9 °F 29% 30.03 in 8.0 mi WSW 5.8 mph - N/A   Partly Cloudy
4:53 PM 66.9 °F - 42.1 °F 40% 30.04 in 6.0 mi West 6.9 mph - N/A   Haze
5:53 PM 64.0 °F - 43.0 °F 46% 30.05 in 7.0 mi WSW 3.5 mph - N/A   Partly Cloudy
6:53 PM 62.1 °F - 42.1 °F 48% 30.07 in 6.0 mi Calm Calm - N/A   Haze
7:53 PM 60.1 °F - 42.1 °F 51% 30.08 in 6.0 mi Calm Calm - N/A   Haze
8:53 PM 55.9 °F - 42.1 °F 60% 30.09 in 6.0 mi East 3.5 mph - N/A   Haze
9:53 PM 55.9 °F - 43.0 °F 62% 30.10 in 5.0 mi Calm Calm - N/A   Haze
10:53 PM 53.1 °F - 41.0 °F 64% 30.10 in 6.0 mi Calm Calm - N/A   Haze
11:53 PM 53.1 °F - 39.0 °F 59% 30.10 in 7.0 mi North 5.8 mph - N/A   Partly Cloudy